When you browse on this site, cookies collect data to enhance your experience and personalize the content and advertising you see.
Visit our Privacy Policy to learn more. By continuing to use the site, you agree to this use of cookies and data.
  • în România
  • Lista ţărilor
  • Pe 7 zile
  • Temperatura apei
  • Meteo pe hartă
  • Widget-uri
  • user-avatar
    Intrare

    Meteo pe oră la Imphal

    Astăzi, 3 Aprilie, Vineri

    Timp Temperatura Precipitaţii Vânt Presiune Umiditate
    00:00 +20°C° 0 mm 1 m/s 690 mmHg 62%
    01:00 +19°C° 0 mm 1 m/s 690 mmHg 65%
    02:00 +17°C° 0 mm 0 m/s 689 mmHg 67%
    03:00 +16°C° 0 mm 0 m/s 689 mmHg 69%
    04:00 +16°C° 0 mm 0 m/s 689 mmHg 70%
    05:00 +16°C° 0 mm 0 m/s 690 mmHg 71%
    06:00 +16°C° 0 mm 0 m/s 690 mmHg 72%
    07:00 +22°C° 0 mm 1 m/s 691 mmHg 60%
    08:00 +26°C° 0 mm 1 m/s 693 mmHg 48%
    09:00 +29°C° 0 mm 2 m/s 694 mmHg 36%
    10:00 +30°C° 0 mm 2 m/s 693 mmHg 34%
    11:00 +31°C° 0 mm 3 m/s 693 mmHg 31%
    12:00 +33°C° 0 mm 3 m/s 692 mmHg 29%
    13:00 +34°C° 0 mm 4 m/s 692 mmHg 27%
    14:00 +34°C° 0 mm 4 m/s 691 mmHg 25%
    15:00 +35°C° 0 mm 5 m/s 691 mmHg 23%
    16:00 +30°C° 0.4 mm 4 m/s 690 mmHg 39%
    17:00 +27°C° 0.4 mm 4 m/s 690 mmHg 55%
    18:00 +22°C° 0.4 mm 4 m/s 689 mmHg 70%
    19:00 +21°C° 0.1 mm 3 m/s 690 mmHg 74%
    20:00 +19°C° 0.1 mm 2 m/s 690 mmHg 77%
    21:00 +17°C° 0.1 mm 0 m/s 691 mmHg 81%
    22:00 +17°C° 0 mm 0 m/s 691 mmHg 81%
    23:00 +16°C° 0 mm 0 m/s 691 mmHg 82%

    Mâine, 4 Aprilie, Sâmbătă

    Timp Temperatura Precipitaţii Vânt Presiune Umiditate
    00:00 +16°C° 0 mm 0 m/s 691 mmHg 82%
    01:00 +16°C° 0.1 mm 0 m/s 690 mmHg 83%
    02:00 +16°C° 0.1 mm 0 m/s 690 mmHg 84%
    03:00 +15°C° 0.1 mm 0 m/s 690 mmHg 85%
    04:00 +15°C° 0 mm 0 m/s 690 mmHg 84%
    05:00 +15°C° 0 mm 0 m/s 691 mmHg 84%
    06:00 +15°C° 0 mm 0 m/s 691 mmHg 83%
    07:00 +21°C° 0 mm 1 m/s 692 mmHg 67%
    08:00 +25°C° 0 mm 1 m/s 693 mmHg 52%
    09:00 +29°C° 0 mm 1 m/s 694 mmHg 36%
    10:00 +31°C° 0 mm 3 m/s 694 mmHg 30%
    11:00 +33°C° 0 mm 4 m/s 693 mmHg 23%
    12:00 +35°C° 0 mm 5 m/s 693 mmHg 16%
    13:00 +35°C° 0 mm 5 m/s 692 mmHg 16%
    14:00 +34°C° 0 mm 5 m/s 691 mmHg 16%
    15:00 +34°C° 0 mm 6 m/s 690 mmHg 17%
    16:00 +32°C° 0 mm 4 m/s 690 mmHg 22%
    17:00 +28°C° 0 mm 3 m/s 690 mmHg 26%
    18:00 +26°C° 0 mm 2 m/s 690 mmHg 31%
    19:00 +24°C° 0 mm 2 m/s 690 mmHg 35%
    20:00 +23°C° 0 mm 1 m/s 690 mmHg 39%
    21:00 +21°C° 0 mm 1 m/s 691 mmHg 42%
    22:00 +20°C° 0 mm 1 m/s 691 mmHg 45%
    23:00 +20°C° 0 mm 1 m/s 691 mmHg 47%

    Poimâine, 5 Aprilie, Duminică

    Timp Temperatura Precipitaţii Vânt Presiune Umiditate
    00:00 +19°C° 0 mm 1 m/s 691 mmHg 49%
    01:00 +16°C° 0 mm 0 m/s 691 mmHg 50%
    02:00 +16°C° 0 mm 0 m/s 690 mmHg 50%
    03:00 +15°C° 0 mm 0 m/s 690 mmHg 51%
    04:00 +15°C° 0 mm 0 m/s 690 mmHg 51%
    05:00 +15°C° 0 mm 0 m/s 691 mmHg 51%
    06:00 +15°C° 0 mm 0 m/s 691 mmHg 51%
    07:00 +21°C° 0 mm 1 m/s 692 mmHg 45%
    08:00 +26°C° 0 mm 1 m/s 693 mmHg 38%
    09:00 +30°C° 0 mm 1 m/s 694 mmHg 32%
    10:00 +31°C° 0 mm 2 m/s 694 mmHg 27%
    11:00 +34°C° 0 mm 4 m/s 693 mmHg 21%
    12:00 +35°C° 0 mm 5 m/s 693 mmHg 16%
    13:00 +35°C° 0 mm 5 m/s 692 mmHg 17%
    14:00 +35°C° 0 mm 6 m/s 691 mmHg 17%
    15:00 +34°C° 0 mm 6 m/s 690 mmHg 17%
    16:00 +32°C° 0 mm 5 m/s 690 mmHg 23%
    17:00 +29°C° 0 mm 4 m/s 690 mmHg 29%
    18:00 +27°C° 0 mm 3 m/s 690 mmHg 34%
    19:00 +25°C° 0 mm 2 m/s 690 mmHg 41%
    20:00 +23°C° 0 mm 1 m/s 690 mmHg 49%
    21:00 +21°C° 0 mm 1 m/s 690 mmHg 56%
    22:00 +20°C° 0 mm 1 m/s 690 mmHg 58%
    23:00 +20°C° 0 mm 1 m/s 690 mmHg 60%

    6 Aprilie, Luni

    Timp Temperatura Precipitaţii Vânt Presiune Umiditate
    00:00 +20°C° 0 mm 1 m/s 690 mmHg 62%
    01:00 +19°C° 0 mm 1 m/s 690 mmHg 64%
    02:00 +19°C° 0 mm 1 m/s 690 mmHg 66%
    03:00 +18°C° 0 mm 1 m/s 689 mmHg 69%
    04:00 +16°C° 0.1 mm 0 m/s 690 mmHg 72%
    05:00 +16°C° 0.1 mm 0 m/s 690 mmHg 74%
    06:00 +15°C° 0.1 mm 0 m/s 690 mmHg 77%
    07:00 +19°C° 0 mm 0 m/s 691 mmHg 64%
    08:00 +25°C° 0 mm 1 m/s 692 mmHg 51%
    09:00 +29°C° 0 mm 1 m/s 693 mmHg 38%
    10:00 +31°C° 0 mm 2 m/s 693 mmHg 30%
    11:00 +34°C° 0 mm 3 m/s 692 mmHg 23%
    12:00 +35°C° 0 mm 5 m/s 692 mmHg 15%
    13:00 +35°C° 0 mm 5 m/s 691 mmHg 16%
    14:00 +35°C° 0 mm 5 m/s 690 mmHg 17%
    15:00 +34°C° 0 mm 5 m/s 689 mmHg 18%
    16:00 +32°C° 0 mm 4 m/s 688 mmHg 24%
    17:00 +29°C° 0 mm 3 m/s 688 mmHg 30%
    18:00 +27°C° 0 mm 2 m/s 687 mmHg 36%
    19:00 +25°C° 0 mm 1 m/s 688 mmHg 40%
    20:00 +23°C° 0 mm 1 m/s 689 mmHg 44%
    21:00 +22°C° 0 mm 1 m/s 689 mmHg 48%
    22:00 +21°C° 0 mm 1 m/s 689 mmHg 51%
    23:00 +18°C° 0 mm 0 m/s 689 mmHg 54%

    7 Aprilie, Marţi

    Timp Temperatura Precipitaţii Vânt Presiune Umiditate
    00:00 +17°C° 0 mm 0 m/s 688 mmHg 57%
    01:00 +17°C° 0 mm 0 m/s 688 mmHg 59%
    02:00 +16°C° 0 mm 0 m/s 688 mmHg 60%
    03:00 +16°C° 0 mm 0 m/s 687 mmHg 62%
    04:00 +16°C° 0 mm 0 m/s 688 mmHg 63%
    05:00 +16°C° 0 mm 0 m/s 688 mmHg 64%
    06:00 +16°C° 0 mm 0 m/s 689 mmHg 65%
    07:00 +20°C° 0 mm 0 m/s 690 mmHg 54%
    08:00 +26°C° 0 mm 1 m/s 691 mmHg 44%
    09:00 +30°C° 0 mm 1 m/s 692 mmHg 33%
    10:00 +32°C° 0 mm 2 m/s 692 mmHg 28%
    11:00 +35°C° 0 mm 4 m/s 691 mmHg 22%
    12:00 +36°C° 0 mm 5 m/s 691 mmHg 16%
    13:00 +36°C° 0 mm 6 m/s 690 mmHg 17%
    14:00 +36°C° 0 mm 6 m/s 689 mmHg 18%
    15:00 +36°C° 0 mm 6 m/s 688 mmHg 19%
    16:00 +33°C° 0.1 mm 6 m/s 688 mmHg 30%
    17:00 +29°C° 0.1 mm 6 m/s 688 mmHg 41%
    18:00 +26°C° 0.1 mm 6 m/s 688 mmHg 52%
    19:00 +23°C° 0.1 mm 4 m/s 688 mmHg 61%
    20:00 +21°C° 0.1 mm 3 m/s 688 mmHg 69%
    21:00 +20°C° 0.1 mm 1 m/s 689 mmHg 78%
    22:00 +19°C° 0 mm 1 m/s 689 mmHg 79%
    23:00 +19°C° 0 mm 1 m/s 689 mmHg 79%

    8 Aprilie, Miercuri

    Timp Temperatura Precipitaţii Vânt Presiune Umiditate
    00:00 +19°C° 0 mm 1 m/s 689 mmHg 79%
    01:00 +18°C° 0 mm 1 m/s 688 mmHg 80%
    02:00 +18°C° 0 mm 1 m/s 688 mmHg 80%
    03:00 +16°C° 0 mm 0 m/s 688 mmHg 81%
    04:00 +16°C° 0.1 mm 0 m/s 688 mmHg 81%
    05:00 +16°C° 0.1 mm 0 m/s 689 mmHg 82%
    06:00 +16°C° 0.1 mm 0 m/s 689 mmHg 82%
    07:00 +22°C° 0 mm 1 m/s 690 mmHg 69%
    08:00 +26°C° 0 mm 1 m/s 691 mmHg 56%
    09:00 +30°C° 0 mm 1 m/s 692 mmHg 43%
    10:00 +32°C° 0 mm 2 m/s 692 mmHg 36%
    11:00 +35°C° 0 mm 3 m/s 692 mmHg 29%
    12:00 +37°C° 0 mm 4 m/s 691 mmHg 22%
    13:00 +36°C° 0 mm 4 m/s 690 mmHg 22%
    14:00 +36°C° 0 mm 4 m/s 689 mmHg 21%
    15:00 +36°C° 0 mm 5 m/s 688 mmHg 21%
    16:00 +34°C° 0 mm 4 m/s 688 mmHg 29%
    17:00 +30°C° 0 mm 3 m/s 688 mmHg 36%
    18:00 +28°C° 0 mm 1 m/s 688 mmHg 43%
    19:00 +25°C° 1.1 mm 1 m/s 689 mmHg 55%
    20:00 +23°C° 1.1 mm 1 m/s 690 mmHg 67%
    21:00 +20°C° 1.1 mm 1 m/s 690 mmHg 79%
    22:00 +20°C° 0 mm 1 m/s 690 mmHg 81%
    23:00 +20°C° 0 mm 1 m/s 690 mmHg 83%
    Arată mai mult